Overview Statistics Trail Chart Weather Telemetry Raw packets
 

This is the latest recevied weather packets stored in our database for station/object OK1TBM-13. If no packets are shown the sender has not sent any weather packets the latest 10 day(s).

<< 73 74 75 76 77 78 79 >>
Time Temp. Humidity Pressure Rain* Wind** Luminosity Snow
1787980801 15.56° C 99% 1014.2 hPa 0 mm - 98 W/m² -
1787980202 15° C 99% 1013.9 hPa 0 mm - 66 W/m² -
1787979901 15° C 99% 1013.9 hPa 0 mm - 53 W/m² -
1787979602 15° C 99% 1013.9 hPa 0 mm - 43 W/m² -
1787979302 15° C 99% 1013.9 hPa 0 mm - 40 W/m² -
1787979002 15° C 99% 1013.9 hPa 0 mm - 38 W/m² -
1787978700 15° C 99% 1014.2 hPa 0 mm - 30 W/m² -
1787978101 15° C 99% 1013.9 hPa 0 mm - 20 W/m² -
1787977802 15° C 99% 1013.9 hPa 0 mm - 19 W/m² -
1787977501 15° C 99% 1013.9 hPa 0 mm - 15 W/m² -
1787977201 15° C 99% 1014.2 hPa 0 mm - 9 W/m² -
1787976902 15° C 99% 1014.2 hPa 0 mm - 5 W/m² -
1787976602 15° C 99% 1014.2 hPa 0 mm - 3 W/m² -
1787976301 15° C 99% 1014.2 hPa 0 mm - 1 W/m² -
1787976001 15° C 99% 1014.2 hPa 0 mm - 1 W/m² -
1787975702 15° C 99% 1014.2 hPa 0 mm - 0 W/m² -
1787975402 15° C 99% 1014.2 hPa 0 mm - 0 W/m² -
1787975101 15° C 99% 1013.6 hPa 0 mm - 0 W/m² -
1787974501 15° C 99% 1011.8 hPa 0 mm - 0 W/m² -
1787974201 15° C 99% 1011.8 hPa 0 mm - 0 W/m² -
1787973902 15° C 99% 1011.8 hPa 0 mm - 0 W/m² -
1787973600 15° C 99% 1011.8 hPa 0 mm - 0 W/m² -
1787973309 15.56° C 99% 1011.8 hPa 0 mm - 0 W/m² -
1787973001 15.56° C 99% 1013.2 hPa 0 mm - 0 W/m² -
1787972701 15.56° C 99% 1013.2 hPa 0 mm - 0 W/m² -

* Rain latest hour (hover to see other rain measurements)
** Current wind speed in m/s (hover to see current wind gust speed)